[[{"header":{"parameterUnit":"m.s-1","parameterCategory":2,"la1":30.2992,"la2":30.254,"lo1":-89.0895,"lo2":-89.0443,"dy":0.0025,"dx":0.0025,"nx":19,"ny":19,"refTime":"2026-05-05T03:00:00:Z","depth":"0","parameterNumber":2,"parameterNumberName":"U-component_of_CURRENTS"},"data":[0,0,0,0.2208,0.221,0.2292,0.2292,0.2352,0.2352,0,0,0,0,0,0,0,0,0,0,0,0.2173,0.2174,0.2208,0.2211,0.2292,0.2292,0.2352,0.2352,0,0,0,0,0,0,0,0,0,0,0,0.2173,0.2174,0.2175,0.2211,0.2292,0.2292,0.2352,0.2299,0,0,0,0,0,0,0,0,0,0,0.2225,0.219,0.2174,0.2175,0.2212,0.2292,0.2292,0.2297,0.2303,0.2304,0,0.2321,0,0.2344,0.2356,0.2356,0,0,0,0.2203,0.2185,0.2222,0.2175,0.2212,0.2292,0.2253,0.2301,0.2307,0.2311,0.2322,0.2325,0.2345,0.2356,0.2357,0.2488,0.2489,0,0,0.2199,0.2173,0.2218,0.2226,0.2238,0.2251,0.2256,0.2305,0.2303,0.2322,0.2327,0.2346,0.2357,0.2357,0.2487,0.2489,0,0,0,0.2191,0.2169,0.2206,0.2223,0.2245,0.2253,0.2259,0.23,0.2317,0.2327,0.2347,0.2357,0.2358,0.2486,0.2488,0.2609,0,0,0,0.2188,0.2166,0.2204,0.2187,0.2245,0.2277,0.2253,0.2313,0.232,0.2346,0.2357,0.2358,0.2485,0.2487,0.2603,0.2641,0,0,0,0.2169,0.2164,0.2178,0.2186,0.2227,0.2278,0.2296,0.2315,0.2332,0.2356,0.2358,0.2484,0.2487,0.2598,0.2633,0.2703,0,0,0,0.2133,0.2137,0.2177,0.2187,0.2227,0.2286,0.2296,0.2317,0.2333,0.2357,0.2485,0.2488,0.2597,0.2628,0.2698,0.2607,0.2624,0,0,0.2115,0.2133,0.2141,0.2179,0.2251,0.2274,0.2367,0.2381,0.2381,0.2462,0.2465,0.2605,0.2632,0.2702,0.275,0.2762,0,0,0,0.212,0.2148,0.2166,0.2225,0.2269,0.2378,0.2402,0.2452,0.2551,0.2408,0.2622,0.2634,0.2675,0.261,0.2621,0.2641,0.2499,0.2499,0.2499,0.2096,0.2148,0.2197,0.229,0.2339,0.2452,0.2543,0.2631,0.2605,0.2687,0.2747,0.2898,0.2831,0.2838,0.2862,0.2769,0.2769,0.277,0.277,0.2138,0.219,0.2267,0.2334,0.2451,0.254,0.272,0.2765,0.2942,0.2891,0.2925,0.2756,0.2857,0.2878,0.2778,0.2777,0.2775,0.2775,0.2774,0.2171,0.2203,0.2242,0.2354,0.2476,0.2598,0.275,0.2894,0.3023,0.3108,0.3008,0.3004,0.3008,0.3121,0.3122,0.3122,0.3123,0.3123,0.3123,0.2183,0.223,0.2263,0.2375,0.2415,0.2545,0.2772,0.2895,0.3059,0.3127,0.3125,0.3065,0.3004,0.2974,0.3131,0.313,0.3129,0.3128,0.3128,0.224,0.2217,0.2256,0.228,0.2375,0.2427,0.2648,0.2855,0.3025,0.3094,0.3164,0.3133,0.3079,0.3067,0.3038,0.3203,0.3203,0.3203,0.3203,0.2234,0.2245,0.2211,0.2203,0.2261,0.2361,0.2462,0.2715,0.302,0.314,0.3213,0.3121,0.3117,0.306,0.3048,0.3017,0.3173,0.3174,0.3174,0.2248,0.2224,0.2166,0.2136,0.2168,0.2255,0.23,0.2478,0.2922,0.318,0.3275,0.3276,0.3148,0.3139,0.3044,0.3027,0.2971,0,0]},{"header":{"parameterUnit":"m.s-1","parameterCategory":2,"la1":30.2992,"la2":30.254,"lo1":-89.0895,"lo2":-89.0443,"dy":0.0025,"dx":0.0025,"nx":19,"ny":19,"refTime":"2026-05-05T03:00:00:Z","depth":"0","parameterNumber":3,"parameterNumberName":"V-component_of_CURRENTS"},"data":[0,0,0,0.0193,0.0192,0.013,0.013,0.0015,0.0014,0,0,0,0,0,0,0,0,0,0,0,0.0212,0.0212,0.0193,0.0192,0.013,0.0129,0.0015,0.0014,0,0,0,0,0,0,0,0,0,0,0,0.0212,0.0212,0.0211,0.0192,0.013,0.0129,0.0016,0.0067,0,0,0,0,0,0,0,0,0,0,0.0129,0.0161,0.0212,0.0211,0.0192,0.013,0.0129,0.0069,0.0063,0.0039,0,0.004,0,0.0033,0.0008,0.0007,0,0,0,0.0174,0.0166,0.0151,0.0211,0.0191,0.013,0.0153,0.0066,0.006,0.0031,0.0039,0.0035,0.0031,0.0007,0.0006,0.009,0.0091,0,0,0.0177,0.0194,0.0156,0.0147,0.0188,0.0155,0.0151,0.0062,0.006,0.0038,0.0032,0.0029,0.0006,0.0005,0.0088,0.009,0,0,0,0.0199,0.0196,0.0183,0.0151,0.0148,0.0154,0.0149,0.0063,0.006,0.0031,0.0028,0.0006,0.0004,0.0086,0.0089,0.0316,0,0,0,0.02,0.0211,0.0185,0.0193,0.015,0.0111,0.0152,0.0066,0.0056,0.0028,0.0006,0.0003,0.0084,0.0088,0.0306,0.0427,0,0,0,0.0212,0.0212,0.0209,0.0195,0.0177,0.0112,0.0103,0.0063,0.0054,0.0007,0.0003,0.0083,0.0087,0.0297,0.041,0.0494,0,0,0,0.0224,0.026,0.021,0.0243,0.0177,0.0198,0.0103,0.0084,0.0052,0.0005,0.0085,0.0089,0.0294,0.04,0.0484,0.0497,0.0542,0,0,0.0285,0.0268,0.0288,0.0243,0.0315,0.0205,0.0298,0.0197,0.0111,0.0103,0.0104,0.031,0.0409,0.0492,0.0727,0.0765,0,0,0,0.0318,0.0357,0.0358,0.0387,0.036,0.042,0.0318,0.0308,0.0321,0.0115,0.0327,0.0383,0.0427,0.0416,0.0447,0.0245,0.0107,0.0107,0.0106,0.046,0.0457,0.0549,0.0569,0.0581,0.0565,0.0609,0.0591,0.0454,0.052,0.0581,0.0821,0.0815,0.0837,0.0632,0.0582,0.0583,0.0584,0.0584,0.0652,0.0732,0.0747,0.084,0.0866,0.0931,0.0939,0.0886,0.0962,0.0825,0.0855,0.0673,0.0885,0.0652,0.0599,0.0596,0.0595,0.0593,0.0592,0.0813,0.0854,0.0909,0.1046,0.1169,0.1162,0.1293,0.1251,0.1189,0.1254,0.1146,0.1141,0.0919,0.1235,0.1236,0.1237,0.1237,0.1238,0.1239,0.0944,0.1007,0.1122,0.1245,0.1333,0.1437,0.1491,0.1528,0.1503,0.1419,0.1416,0.0998,0.1018,0.0972,0.1254,0.1251,0.1249,0.1248,0.1247,0.1122,0.1105,0.129,0.1389,0.1585,0.1747,0.1771,0.1832,0.1817,0.1826,0.1337,0.1474,0.1391,0.1363,0.1325,0.1681,0.1681,0.1681,0.1681,0.1192,0.1212,0.1415,0.1592,0.1781,0.1897,0.2136,0.2152,0.1819,0.1578,0.1404,0.1234,0.1225,0.1119,0.1096,0.1046,0.1323,0.1322,0.1321,0.1274,0.1328,0.1484,0.1652,0.1874,0.2066,0.2322,0.2357,0.1715,0.1282,0.1133,0.1149,0.0866,0.0868,0.066,0.0644,0.0546,0,0]}],[{"header":{"parameterUnit":"m.s-1","parameterCategory":2,"la1":30.2992,"la2":30.254,"lo1":-89.0895,"lo2":-89.0443,"dy":0.0025,"dx":0.0025,"nx":19,"ny":19,"refTime":"2026-05-05T03:00:00:Z","depth":"2","parameterNumber":2,"parameterNumberName":"U-component_of_CURRENTS"},"data":[0,0,0,0.2187,0.2189,0.2274,0.2274,0.2338,0.2339,0,0,0,0,0,0,0,0,0,0,0,0.2153,0.2154,0.2187,0.2189,0.2274,0.2274,0.2338,0.2339,0,0,0,0,0,0,0,0,0,0,0,0.2153,0.2154,0.2154,0.219,0.2274,0.2274,0.2338,0.2284,0,0,0,0,0,0,0,0,0,0,0.2206,0.217,0.2153,0.2154,0.219,0.2274,0.2274,0.2281,0.2287,0.2289,0,0.2306,0,0.2328,0.2342,0.2343,0,0,0,0.2183,0.2166,0.2204,0.2155,0.2191,0.2274,0.2234,0.2285,0.2291,0.2296,0.2307,0.231,0.2329,0.2343,0.2343,0.247,0.2471,0,0,0.2179,0.2153,0.22,0.2208,0.2218,0.2231,0.2237,0.2289,0.2287,0.2308,0.2312,0.233,0.2343,0.2344,0.2469,0.247,0,0,0,0.2169,0.2149,0.2187,0.2205,0.2226,0.2234,0.224,0.2285,0.2302,0.2313,0.2331,0.2343,0.2344,0.2468,0.247,0.2583,0,0,0,0.2166,0.2145,0.2184,0.2168,0.2226,0.226,0.2235,0.2298,0.2305,0.2331,0.2343,0.2345,0.2467,0.2469,0.2578,0.2624,0,0,0,0.2148,0.2142,0.2158,0.2166,0.2208,0.226,0.228,0.23,0.2316,0.2343,0.2345,0.2466,0.2469,0.2573,0.2616,0.2662,0,0,0,0.2111,0.2117,0.2157,0.2169,0.2208,0.2267,0.228,0.2303,0.2321,0.2344,0.2467,0.2469,0.2572,0.2611,0.2657,0.2511,0.2521,0,0,0.2096,0.2115,0.2123,0.2161,0.2233,0.2255,0.2346,0.2364,0.2366,0.2443,0.2446,0.258,0.2615,0.2661,0.2644,0.265,0,0,0,0.2103,0.213,0.2148,0.2207,0.2252,0.2357,0.2382,0.2432,0.2529,0.2392,0.2595,0.2614,0.2638,0.2541,0.2547,0.248,0.248,0.248,0.248,0.2077,0.213,0.2179,0.227,0.2319,0.2429,0.2519,0.2605,0.2579,0.2658,0.2718,0.2846,0.2745,0.2747,0.2732,0.2732,0.2733,0.2733,0.2733,0.2115,0.2169,0.2244,0.2311,0.2427,0.2515,0.269,0.2734,0.2902,0.2858,0.2875,0.268,0.276,0.2743,0.2741,0.274,0.2739,0.2738,0.2737,0.2146,0.2182,0.2218,0.2333,0.2457,0.2577,0.2711,0.2857,0.298,0.3057,0.2901,0.2896,0.2895,0.3048,0.3049,0.3049,0.305,0.305,0.305,0.2163,0.2207,0.2238,0.2358,0.2402,0.2528,0.2734,0.284,0.2966,0.3014,0.3011,0.2951,0.2941,0.2913,0.3057,0.3056,0.3055,0.3054,0.3054,0.2215,0.2187,0.2241,0.2264,0.2372,0.2427,0.259,0.2725,0.287,0.291,0.2979,0.2978,0.2919,0.2911,0.2881,0.3009,0.3009,0.3009,0.3009,0.2196,0.221,0.2211,0.2225,0.2294,0.2373,0.2348,0.2385,0.2594,0.2643,0.2658,0.2537,0.2548,0.246,0.2462,0.242,0.2428,0.2427,0.2425,0.2185,0.2188,0.2176,0.2196,0.2241,0.2287,0.2177,0.1999,0.2137,0.2398,0.2509,0.2979,0.2838,0.2841,0.2731,0.2725,0.2667,0,0]},{"header":{"parameterUnit":"m.s-1","parameterCategory":2,"la1":30.2992,"la2":30.254,"lo1":-89.0895,"lo2":-89.0443,"dy":0.0025,"dx":0.0025,"nx":19,"ny":19,"refTime":"2026-05-05T03:00:00:Z","depth":"2","parameterNumber":3,"parameterNumberName":"V-component_of_CURRENTS"},"data":[0,0,0,0.0122,0.0122,0.0062,0.0062,-0.0059,-0.0059,0,0,0,0,0,0,0,0,0,0,0,0.0141,0.0141,0.0122,0.0122,0.0062,0.0062,-0.0058,-0.0059,0,0,0,0,0,0,0,0,0,0,0,0.0141,0.0141,0.0141,0.0122,0.0062,0.0062,-0.0058,-0.0007,0,0,0,0,0,0,0,0,0,0,0.0055,0.0088,0.0141,0.0141,0.0121,0.0063,0.0062,-0.0004,-0.001,-0.0039,0,-0.0036,0,-0.0043,-0.0067,-0.0067,0,0,0,0.0104,0.0093,0.0078,0.0141,0.0121,0.0063,0.0084,-0.0007,-0.0014,-0.0047,-0.0038,-0.0042,-0.0045,-0.0068,-0.0068,-0.0017,-0.0015,0,0,0.0107,0.0124,0.0083,0.0074,0.0119,0.0086,0.0082,-0.0011,-0.0013,-0.0038,-0.0045,-0.0047,-0.0068,-0.0069,-0.0018,-0.0016,0,0,0,0.0129,0.0127,0.0114,0.0079,0.0076,0.0085,0.0081,-0.001,-0.0013,-0.0046,-0.0049,-0.0069,-0.007,-0.0019,-0.0017,0.0171,0,0,0,0.013,0.014,0.0115,0.0124,0.0078,0.004,0.0084,-0.0007,-0.0017,-0.0048,-0.0069,-0.0071,-0.0021,-0.0018,0.0162,0.0277,0,0,0,0.0141,0.0141,0.0139,0.0125,0.0108,0.0041,0.0032,-0.0009,-0.0018,-0.0067,-0.0072,-0.0022,-0.0019,0.0155,0.0262,0.0285,0,0,0,0.0153,0.0186,0.014,0.017,0.0109,0.0121,0.0032,0.0011,-0.0022,-0.007,-0.0021,-0.0017,0.0152,0.0254,0.0278,0.0103,0.0123,0,0,0.0209,0.0193,0.0211,0.0169,0.0228,0.0127,0.0191,0.0095,0.0024,-0.0001,0.0,0.0165,0.0262,0.0284,0.0295,0.0309,0,0,0,0.0238,0.0268,0.0267,0.029,0.0264,0.0301,0.0204,0.0188,0.019,0.0023,0.018,0.0236,0.0242,0.0122,0.0135,-0.0002,-0.0002,-0.0002,-0.0003,0.0358,0.0354,0.0427,0.0439,0.0444,0.0415,0.0437,0.041,0.0295,0.0351,0.0399,0.0567,0.0444,0.045,0.0391,0.0392,0.0393,0.0393,0.0394,0.0507,0.0576,0.0581,0.0657,0.0673,0.0719,0.0704,0.0655,0.0696,0.0604,0.0598,0.0342,0.0473,0.0409,0.0406,0.0404,0.0402,0.0401,0.04,0.0632,0.0675,0.0713,0.083,0.0935,0.0923,0.099,0.0957,0.0891,0.0929,0.0686,0.0679,0.0649,0.0886,0.0887,0.0887,0.0888,0.0888,0.0889,0.0754,0.0799,0.0888,0.1003,0.1075,0.1168,0.1172,0.1145,0.1016,0.0903,0.0898,0.0731,0.0715,0.0676,0.0899,0.0897,0.0896,0.0895,0.0894,0.0898,0.0868,0.0999,0.1071,0.1259,0.1291,0.1284,0.1131,0.1117,0.1017,0.0836,0.0834,0.0741,0.0726,0.0686,0.0899,0.0899,0.0899,0.0899,0.0933,0.095,0.1035,0.1145,0.131,0.1333,0.1231,0.1055,0.0894,0.0739,0.0747,0.0605,0.0606,0.0497,0.0487,0.0438,0.0588,0.0587,0.0587,0.0959,0.096,0.1005,0.1113,0.1285,0.1328,0.1112,0.0916,0.0682,0.0581,0.0757,0.0865,0.0667,0.0666,0.0496,0.0483,0.0402,0,0]}],[{"header":{"parameterUnit":"m.s-1","parameterCategory":2,"la1":30.2992,"la2":30.254,"lo1":-89.0895,"lo2":-89.0443,"dy":0.0025,"dx":0.0025,"nx":19,"ny":19,"refTime":"2026-05-05T03:00:00:Z","depth":"4","parameterNumber":2,"parameterNumberName":"U-component_of_CURRENTS"},"data":[0,0,0,0.1157,0.1163,0.1386,0.1387,0.1487,0.1488,0,0,0,0,0,0,0,0,0,0,0,0.1067,0.107,0.1157,0.1163,0.1386,0.1387,0.1487,0.1488,0,0,0,0,0,0,0,0,0,0,0,0.1066,0.1069,0.1072,0.1164,0.1386,0.1387,0.1487,0.1357,0,0,0,0,0,0,0,0,0,0,0.116,0.1125,0.1068,0.1072,0.1166,0.1386,0.1387,0.1352,0.1365,0.1344,0,0.1404,0,0.1466,0.1494,0.1494,0,0,0,0.1132,0.1115,0.1175,0.1072,0.1169,0.1386,0.1277,0.1361,0.1375,0.1359,0.1406,0.1412,0.1468,0.1494,0.1494,0.162,0.1621,0,0,0.1119,0.11,0.1166,0.1185,0.1258,0.127,0.1284,0.1371,0.1394,0.1407,0.1416,0.1469,0.1495,0.1495,0.162,0.1621,0,0,0,0.1105,0.1091,0.1152,0.1178,0.1245,0.1277,0.1293,0.139,0.1412,0.1417,0.1471,0.1495,0.1496,0.1619,0.162,0.1734,0,0,0,0.1096,0.1086,0.1146,0.1135,0.1245,0.135,0.131,0.1405,0.1419,0.147,0.1495,0.1497,0.1618,0.1619,0.1729,0.1616,0,0,0,0.1052,0.1081,0.1116,0.1134,0.1247,0.1351,0.1378,0.141,0.1451,0.1494,0.1497,0.1617,0.1619,0.1724,0.1614,0.163,0,0,0,0.1007,0.1068,0.1117,0.1183,0.1246,0.1353,0.1378,0.1463,0.1502,0.1496,0.1618,0.162,0.1723,0.1612,0.1629,0.1443,0,0,0,0.1046,0.1073,0.1101,0.115,0.1245,0.1318,0.1432,0.1502,0.152,0.1568,0.1573,0.173,0.1614,0.163,0.1554,0,0,0,0,0.1085,0.1118,0.115,0.1225,0.1304,0.1428,0.151,0.1563,0.1674,0.1564,0.1736,0.1654,0.1663,0.1554,0.1629,0.1629,0.1628,0.1628,0.1628,0.1105,0.1134,0.1195,0.127,0.1356,0.1505,0.158,0.167,0.1708,0.1792,0.176,0.1838,0.1736,0.1856,0.1857,0.1858,0.1858,0.1859,0.1859,0.1124,0.1114,0.1225,0.1307,0.1438,0.1554,0.1708,0.1775,0.1815,0.1851,0.1862,0.1694,0.187,0.1868,0.1866,0.1865,0.1864,0.1863,0.1863,0.1083,0.1067,0.1175,0.1263,0.1419,0.1586,0.1693,0.1812,0.185,0.184,0.1731,0.1852,0.1825,0.1906,0.1906,0.1905,0.1905,0.1905,0.1905,0.0931,0.1024,0.1079,0.1193,0.1272,0.1433,0.1659,0.1702,0.1798,0.1699,0.1844,0.185,0.1849,0.1823,0.19,0.19,0.1901,0.1902,0.1902,0.0758,0.0834,0.0874,0.0956,0.1085,0.1186,0.1462,0.1599,0.1573,0.1505,0.1648,0.1662,0.1559,0.1563,0.1523,0.1514,0.1511,0.1509,0,0.0616,0.0655,0.0723,0.079,0.0844,0.1048,0.1104,0.123,0.1335,0.1299,0.1466,0.1621,0.1633,0.1512,0.1512,0.1461,0,0,0,0.0485,0.0537,0.056,0.0674,0.0752,0.0905,0.1121,0.1147,0.1327,0.1339,0.1453,0.1468,0.1723,0.1884,0.1757,0.1755,0.1704,0,0]},{"header":{"parameterUnit":"m.s-1","parameterCategory":2,"la1":30.2992,"la2":30.254,"lo1":-89.0895,"lo2":-89.0443,"dy":0.0025,"dx":0.0025,"nx":19,"ny":19,"refTime":"2026-05-05T03:00:00:Z","depth":"4","parameterNumber":3,"parameterNumberName":"V-component_of_CURRENTS"},"data":[0,0,0,0.0086,0.0085,0.0036,0.0036,-0.0089,-0.009,0,0,0,0,0,0,0,0,0,0,0,0.0101,0.0101,0.0086,0.0085,0.0036,0.0036,-0.0089,-0.009,0,0,0,0,0,0,0,0,0,0,0,0.0101,0.0101,0.0101,0.0085,0.0036,0.0036,-0.0088,-0.0038,0,0,0,0,0,0,0,0,0,0,0.0016,0.0044,0.0101,0.0101,0.0085,0.0036,0.0036,-0.0035,-0.0042,-0.0082,0,-0.0083,0,-0.0087,-0.0099,-0.0099,0,0,0,0.0075,0.005,0.0036,0.0101,0.0084,0.0036,0.0055,-0.0038,-0.0045,-0.009,-0.0085,-0.0089,-0.0089,-0.01,-0.01,-0.0238,-0.0239,0,0,0.0078,0.0088,0.0041,0.0032,0.0078,0.0057,0.0054,-0.0042,-0.0048,-0.0085,-0.0092,-0.0091,-0.0101,-0.0102,-0.0238,-0.0238,0,0,0,0.0092,0.009,0.008,0.0037,0.0034,0.0056,0.0052,-0.0044,-0.0047,-0.0093,-0.0092,-0.0101,-0.0103,-0.0237,-0.0238,-0.022,0,0,0,0.0093,0.0099,0.0081,0.0086,0.0037,0.0004,0.0053,-0.0041,-0.0051,-0.0092,-0.0101,-0.0104,-0.0237,-0.0238,-0.0219,-0.0265,0,0,0,0.0102,0.0099,0.0096,0.0087,0.007,0.0006,-0.0003,-0.0043,-0.0051,-0.01,-0.0105,-0.0236,-0.0237,-0.0219,-0.0262,-0.0256,0,0,0,0.011,0.0104,0.0097,0.0086,0.0071,0.0027,-0.0002,-0.0033,-0.0069,-0.0102,-0.0237,-0.0238,-0.0218,-0.0261,-0.0255,-0.0102,0,0,0,0.0107,0.0104,0.0097,0.0089,0.0038,0.0033,-0.0032,-0.008,-0.0108,-0.021,-0.0213,-0.022,-0.0262,-0.0256,-0.0177,0,0,0,0,0.0099,0.0074,0.0066,0.003,0.0012,-0.0028,-0.0076,-0.0108,-0.0177,-0.0135,-0.025,-0.0279,-0.0274,-0.0183,-0.0244,-0.0244,-0.0243,-0.0243,-0.0243,0.0048,0.0036,-0.0005,-0.0035,-0.0046,-0.0091,-0.0131,-0.0195,-0.0205,-0.0232,-0.0284,-0.0305,-0.0209,-0.0279,-0.0279,-0.0279,-0.0279,-0.0279,-0.0279,-0.0028,-0.0059,-0.0074,-0.0111,-0.0127,-0.0169,-0.0211,-0.0223,-0.0329,-0.0322,-0.0314,-0.0197,-0.0278,-0.0278,-0.0278,-0.0279,-0.0279,-0.0279,-0.0279,-0.0124,-0.0121,-0.0148,-0.0172,-0.0201,-0.0194,-0.0167,-0.0229,-0.0322,-0.0359,-0.0236,-0.0314,-0.0292,-0.0323,-0.0323,-0.0323,-0.0323,-0.0323,-0.0323,-0.0169,-0.0191,-0.0175,-0.0217,-0.0191,-0.0154,-0.0152,-0.0155,-0.0235,-0.0254,-0.0354,-0.032,-0.0319,-0.0297,-0.0326,-0.0325,-0.0325,-0.0325,-0.0325,-0.0184,-0.017,-0.0157,-0.013,-0.0079,-0.0064,-0.0054,-0.002,-0.0071,-0.0121,-0.0184,-0.019,-0.0191,-0.0194,-0.0167,-0.0158,-0.0156,-0.0155,0,-0.0135,-0.015,-0.0053,0.0018,0.0068,0.0043,0.01,0.0079,-0.0029,-0.0033,-0.0131,-0.0203,-0.0207,-0.0207,-0.0206,-0.0174,0,0,0,-0.0043,-0.0048,0.0039,0.0075,0.016,0.0158,0.0124,0.0155,-0.0051,0.0027,-0.0108,-0.012,-0.0155,-0.0334,-0.0351,-0.035,-0.0316,0,0]}]]